Location: Marion Hill
(40.7303°N, 80.2959°W)
Time: 18:46:47
(UTC+00:00)

Meteor 2-14 Rocket - Pass Details

Date: 29 October 2020
Orbit: 937 x 957 km, 82.5° (Epoch: 23 November)

Event Time Altitude Azimuth Distance (km) Brightness Sun altitude
Rises 22:32:55 0° 353° (N) 3,638 7.4 -3.1°
Reaches altitude 10° 22:35:26 10° 355° (N) 2,686 6.7 -3.5°
Maximum altitude 22:41:35 77° 81° (E) 978 4.5 -4.7°
Drops below altitude 10° 22:47:40 10° 168° (SSE) 2,655 6.8 -5.8°
Sets 22:50:08 0° 170° (S) 3,593 7.5 -6.3°
